Flag for U.S.A. Weather past 2 weeks in Monterey, California, U.S.A.

Now
57 °F

Sunny.


Feels Like: 57 °F
Forecast: 48 / 59 °F
Wind: No wind

Location: Monterey Peninsula Airport

Current Time: Apr 19, 2015 at 11:43:52 AM

Latest Report: Apr 19, 2015 at 10:54 AM


Visibility: 10 mi

Pressure: 30.02 "Hg

Humidity: 67%

Dew point: 46 °F

Location of MontereyLocation

Historic Weather in Monterey — Graph

°F

Monterey temperature yesterday

Maximum temperature yesterday: 62 °F (at 2:54 PM)
Minimum temperature yesterday: 48 °F (at 5:54 AM)
Average temperature yesterday: 53 °F

Past Weeks' High & Low Weather Summary

 TemperatureHumidityPressure
High75 °F (Apr 16, 3:54 PM)100% (Apr 8, 8:54 AM)30.36 "Hg (Apr 8, 8:54 AM)
Low42 °F (Apr 15, 5:54 AM)15% (Apr 16, 3:54 PM)29.83 "Hg (Apr 7, 5:54 AM)
Average55 °F64%30.08 "Hg
* Reported Apr 4 10:54 AM — Apr 19 10:03 AM, Monterey, Weather by CustomWeather, © 2015

Note: Actual official high and low records may vary slightly from our data, if they occured in-between our weather recording intervals... More about our weather records

Advertising

Monterey weather history for previous 24 hours

 ConditionsComfort  
Time TempWeatherWind HumidityBarometerVisibility
10:03 AM
Sun, Apr 19
54 °FOvercast.5 mph72%29.99 "Hg10 mi
9:54 AM53 °FLow clouds.No wind77%30.03 "Hg10 mi
8:54 AM50 °FLow clouds.No wind83%30.03 "Hg10 mi
7:54 AM50 °FLow clouds.5 mph83%30.04 "Hg10 mi
6:54 AM50 °FLow clouds.No wind86%30.04 "Hg10 mi
5:54 AM49 °FLow clouds.No wind90%30.02 "Hg10 mi
4:54 AM49 °FLow clouds.3 mph90%30.02 "Hg7 mi
3:54 AM50 °FLow clouds.5 mph89%30.02 "Hg8 mi
2:54 AM50 °FLow clouds.No wind93%30.02 "Hg7 mi
1:54 AM50 °FLow clouds.5 mph93%30.02 "Hg7 mi
12:54 AM50 °FFog.7 mph93%30.02 "Hg5 mi
11:54 PM
Sat, Apr 18
51 °FLow clouds.6 mph89%30.02 "Hg8 mi
10:54 PM52 °FLow clouds.5 mph86%30.02 "Hg9 mi
9:54 PM52 °FLow clouds.5 mph86%30.02 "Hg10 mi
8:54 PM52 °FLow clouds.3 mph89%30.03 "Hg10 mi
7:54 PM53 °FLow clouds.No wind83%30.01 "Hg10 mi
6:54 PM54 °FLow clouds.3 mph83%30.01 "Hg9 mi
5:54 PM55 °FPartly sunny.6 mph77%30.02 "Hg9 mi
4:54 PM58 °FSunny.12 mph70%30.02 "Hg10 mi
3:54 PM60 °FSunny.10 mph65%30.03 "Hg10 mi
2:54 PM62 °FSunny.9 mph62%30.04 "Hg10 mi
1:54 PM60 °FSunny.12 mph65%30.05 "Hg10 mi
12:54 PM59 °FSunny.7 mph67%30.07 "Hg10 mi
11:54 AM57 °FSunny.9 mph69%30.09 "Hg10 mi
Weather by CustomWeather, © 2015

See weather overviewHow to use our weather pages